Temperature
16 16 16 16 16 16 16 16 16 16 16 16 16 16 16 16 16 15 15 15 15 15 14 14 14 14 13 13 13 13 13 13 12 12 12 12 12 12
16 16 16 16 16 16 16 16 16 16 16 16 16 16 16 16 15 15 15 15 14 14 14 14 13 13 13 13 13 12 12 12 12 11 11 11 11 11
16 16 16 16 16 16 16 16 16 16 16 16 16 15 15 15 15 15 14 14 14 14 13 13 13 12 12 12 12 12 11 11 11 11 10 10 10 10
16 16 16 15 15 15 15 16 16 16 16 16 15 15 15 14 14 14 14 14 13 13 13 12 12 12 12 11 11 11 11 10 10 10 10 10 9 9
15 15 15 15 15 15 15 15 15 15 15 15 15 14 14 14 14 13 13 13 13 12 12 12 11 11 11 10 10 10 10 10 9 9 9 9 9 8
15 15 15 15 15 15 15 15 15 15 15 14 14 14 13 13 13 13 12 12 12 11 11 11 10 10 10 10 9 9 9 9 8 8 8 8 8 7
14 14 14 14 14 14 14 14 14 14 14 13 13 13 12 12 12 12 11 11 11 10 10 10 9 9 9 9 8 8 8 8 8 7 7 7 7 6
14 14 14 14 14 14 14 13 13 13 13 13 12 12 12 11 11 11 11 10 10 9 9 9 8 8 8 8 7 7 7 7 7 6 6 6 6 6
14 14 13 13 13 13 13 13 12 12 12 12 12 11 11 11 11 10 10 10 9 8 8 8 7 7 7 7 6 6 6 6 6 5 5 5 5 5
13 13 13 13 12 12 12 12 12 11 11 11 11 11 10 10 10 10 9 9 8 7 7 7 6 6 6 6 6 5 5 5 5 5 5 5 4 4
12 12 12 12 12 12 12 11 11 10 10 10 10 9 9 9 9 9 8 8 7 7 6 6 6 5 5 5 5 5 4 4 4 4 4 4 4 4
12 12 11 11 11 11 11 10 10 10 9 9 9 8 8 8 8 7 7 7 7 6 5 5 5 5 4 4 4 4 4 4 4 4 3 3 3 3
11 11 11 10 10 10 10 9 9 9 8 8 8 7 7 7 7 6 6 6 6 5 5 4 4 4 4 3 3 3 3 3 3 3 3 3 3 3
11 10 10 9 9 9 9 8 8 8 7 7 7 6 6 6 5 5 5 5 5 4 4 4 4 4 3 3 3 3 3 3 3 3 3 3 3 3
10 9 9 9 8 8 8 7 7 7 7 6 6 5 5 5 5 5 4 4 4 4 4 3 3 3 3 3 3 2 2 2 2 2 2 2 2 2
9 8 8 8 7 7 7 6 6 6 6 6 5 5 4 4 4 4 4 4 4 3 3 3 3 3 3 2 2 2 2 2 2 2 2 2 2 2
8 8 7 7 7 6 6 6 5 5 5 5 5 4 4 4 4 4 3 3 3 3 3 3 3 3 2 2 2 2 2 2 2 2 2 2 2 2
8 7 7 6 6 6 5 5 5 5 5 4 4 4 4 4 3 3 3 3 3 2 2 2 2 2 2 2 2 2 2 2 2 2 2 2 2 2
7 7 6 6 5 5 5 5 5 4 4 4 4 4 3 3 3 3 3 2 2 2 2 2 2 2 2 2 2 2 2 2 2 2 2 1 1 1
7 6 6 5 5 5 5 4 4 4 4 3 3 3 3 3 3 3 2 2 2 2 2 2 2 2 1 1 1 2 2 1 1 1 1 1 1 1
6 5 5 5 5 4 4 4 4 4 4 3 3 3 3 3 3 2 2 2 2 2 2 2 2 2 2 2 2 1 2 1 1 1 1 1 1 1
5 5 5 4 4 4 4 4 4 4 3 3 3 3 3 3 2 2 2 2 2 2 2 2 2 2 2 1 1 1 1 2 2 2 1 1 1 1
5 5 4 4 4 4 4 4 4 4 3 3 3 3 3 2 2 2 2 2 2 2 2 2 2 2 1 1 1 1 1 1 1 2 2 1 1 1
Wind_Speed
6 6 5 4 4 4 4 4 5 3 3 1 1 1 1 3 3 4 5 5 5 6 6 5 5 5 5 5 5 4 4 4 4 5 5 6 6 6
5 6 5 4 4 4 4 3 4 4 3 1 1 1 2 3 5 6 6 7 6 6 6 6 6 6 5 5 5 5 4 5 5 5 5 5 6 6
5 6 5 4 4 4 3 3 4 4 4 2 1 1 2 3 5 7 7 7 7 7 7 6 6 6 6 5 5 5 5 5 5 5 6 6 6 6
5 5 5 4 4 4 4 4 4 4 4 4 1 1 2 3 4 6 6 7 8 9 9 8 8 7 7 6 5 5 5 5 6 6 6 6 6 6
5 5 5 5 5 3 4 4 3 4 3 4 3 1 2 2 4 5 7 7 8 9 10 10 10 9 9 7 6 6 6 6 6 6 6 7 7 7
4 4 5 5 5 5 4 4 4 5 5 5 3 2 2 2 3 3 4 4 5 8 10 11 12 12 12 10 8 7 7 7 7 8 8 8 8 7
3 2 2 3 4 4 4 4 5 5 5 5 3 2 2 2 2 2 4 4 5 5 5 6 8 9 9 10 9 9 9 8 8 8 8 8 8 8
4 4 4 5 7 8 8 8 7 6 5 4 3 3 2 2 2 4 4 3 2 3 3 4 5 5 6 7 8 8 8 8 7 7 8 8 9 9
5 5 5 6 8 8 11 13 12 10 8 6 5 3 3 2 4 4 3 3 3 1 2 3 3 3 5 7 9 9 9 9 9 8 8 9 10 11
5 6 7 6 7 10 11 12 11 10 9 8 7 6 5 4 4 5 5 5 4 4 3 2 2 3 4 6 9 10 10 10 10 10 10 10 12 12
7 7 8 8 11 14 13 13 12 11 17 20 18 16 15 13 9 6 5 5 4 3 4 2 2 2 3 3 7 9 9 10 10 10 11 12 12 12
7 7 9 10 13 13 12 12 12 9 9 11 13 14 14 14 13 8 4 4 3 2 3 2 2 2 2 2 5 7 8 9 11 11 12 13 13 10
7 6 7 13 14 13 12 10 12 10 9 9 9 8 8 9 9 9 7 5 4 3 1 1 1 1 1 2 3 5 7 7 8 9 11 13 13 10
8 7 8 13 14 14 11 13 14 11 8 8 7 7 6 6 6 8 9 9 7 4 2 2 1 1 1 2 3 4 6 7 6 7 9 12 12 12
8 12 13 14 13 12 14 14 11 8 7 7 7 5 4 4 5 5 7 9 9 7 6 4 2 1 0 1 3 4 4 5 6 7 9 9 8 9
10 13 15 14 12 11 10 9 7 7 7 6 6 4 4 4 4 4 3 4 4 5 7 6 4 2 1 2 2 4 5 5 6 8 8 8 9 9
10 8 8 7 7 7 7 6 6 6 6 5 5 5 5 5 4 4 3 4 4 3 4 6 7 5 2 2 2 4 6 6 6 7 7 7 8 10
11 8 7 7 7 7 6 6 5 5 5 5 5 5 5 5 4 4 3 3 3 3 4 4 5 4 4 2 2 4 5 6 7 7 6 6 8 9
9 8 7 6 6 6 5 5 4 4 4 5 5 4 4 4 4 3 3 3 3 3 3 4 4 4 5 7 5 3 5 7 7 7 7 6 8 10
6 7 6 6 6 5 5 5 5 4 4 4 4 4 4 4 3 3 2 2 2 2 3 4 4 4 3 5 5 5 8 6 7 8 8 7 7 11
6 6 6 6 5 5 5 5 5 4 4 4 3 3 3 3 3 2 2 2 2 2 3 4 5 7 4 3 5 6 7 10 8 6 7 7 8 8
6 6 5 5 5 5 5 5 4 4 4 3 3 3 2 2 2 2 1 1 1 2 3 4 5 4 2 4 6 8 8 9 12 12 9 7 6 7
5 5 5 5 4 5 5 5 5 4 3 3 3 2 2 2 2 1 1 1 1 2 3 4 4 4 4 4 6 7 9 10 8 9 9 12 13 14
Wind_Direction
200 196 200 205 198 199 189 179 174 197 228 252 295 354 89 103 122 124 127 131 144 148 150 147 142 135 125 118 113 102 84 71 59 49 41 33 24 15
194 191 201 204 200 197 198 196 188 186 203 213 229 5 63 105 100 107 106 105 109 123 127 126 129 126 120 111 102 96 87 77 66 53 38 25 16 9
195 194 204 198 193 192 187 185 186 175 190 199 89 46 64 83 86 94 93 89 84 95 109 113 114 111 108 105 101 94 82 68 54 41 28 17 11 7
194 192 203 199 197 192 188 191 189 182 177 180 148 78 67 83 88 84 81 81 83 81 89 91 90 90 91 92 92 88 75 60 46 34 25 19 15 12
189 193 198 190 197 195 187 188 184 171 159 157 158 118 82 83 84 78 71 65 77 76 76 73 76 77 73 70 70 70 64 55 46 38 33 28 21 13
182 191 193 191 193 184 176 172 157 142 135 134 135 119 99 87 100 100 83 63 63 67 71 71 71 71 67 63 63 61 57 52 49 42 32 24 18 12
140 142 150 145 151 151 156 154 149 143 138 135 132 114 107 112 118 114 112 93 61 51 69 63 62 61 58 57 58 58 56 50 44 38 27 17 9 5
127 112 102 99 101 99 100 106 118 137 146 138 133 130 131 126 115 122 124 121 97 26 68 60 53 55 48 52 52 53 49 38 29 20 14 8 0 352
126 120 108 99 101 103 92 83 78 85 108 128 126 127 134 140 133 119 104 96 97 43 72 62 37 45 35 40 41 38 31 23 17 10 3 358 351 345
102 108 110 101 102 110 102 87 75 65 78 89 98 93 91 101 114 124 118 101 87 47 45 71 22 21 21 22 29 26 21 17 13 8 2 353 347 343
88 91 103 103 104 107 104 100 91 81 80 86 86 83 80 81 91 98 100 99 78 41 23 60 22 358 7 5 8 11 10 8 5 360 354 348 344 341
90 86 91 104 108 107 110 110 106 100 95 86 77 71 70 67 66 69 86 94 90 66 18 41 23 7 5 350 344 351 357 359 357 354 351 348 345 341
104 95 93 102 103 101 103 107 113 110 99 92 84 73 65 61 57 60 68 83 89 77 40 69 40 18 2 324 327 332 340 341 344 345 346 343 341 338
115 110 105 103 100 98 97 102 104 102 100 95 89 81 74 66 58 62 68 71 76 84 67 74 62 9 349 338 330 326 329 334 337 334 335 334 334 333
109 110 106 102 97 93 96 101 102 104 106 101 96 87 77 72 73 70 64 67 64 59 54 55 54 24 340 323 319 319 323 325 331 332 329 326 324 326
105 103 97 91 89 90 92 90 88 96 103 103 99 87 79 77 70 67 68 59 59 40 28 29 22 2 341 312 307 319 324 320 325 330 327 321 321 323
117 107 102 102 99 95 91 87 91 97 97 98 100 95 90 83 70 62 65 62 59 36 13 4 5 2 306 288 323 330 329 326 325 328 325 323 323 326
115 116 115 114 114 113 110 102 95 100 104 107 105 103 101 95 82 67 64 67 60 34 15 0 358 6 7 357 268 309 327 327 325 322 321 320 321 327
112 120 121 121 119 118 118 114 108 104 106 110 108 106 105 98 87 77 73 67 50 27 9 2 6 11 5 357 341 299 310 323 325 325 323 318 313 317
114 123 126 126 126 125 124 120 115 111 107 107 108 110 110 104 96 86 74 63 44 22 7 2 1 353 341 331 320 310 306 307 322 324 322 317 309 305
119 122 127 130 129 129 128 127 125 124 121 119 118 117 115 108 102 92 77 58 43 18 358 347 332 319 295 293 320 332 326 319 307 300 312 318 327 330
128 130 132 134 136 137 136 132 128 127 128 126 128 125 120 118 116 104 83 52 18 350 331 327 331 337 344 340 334 329 328 329 329 326 310 293 314 326
139 141 142 144 144 142 141 141 141 142 145 144 142 140 139 132 124 115 91 30 350 344 340 338 343 344 336 326 324 323 327 332 334 335 335 329 317 303
Height
1567 1569 1570 1571 1572 1574 1575 1576 1578 1577 1578 1579 1579 1580 1581 1581 1581 1582 1583 1583 1583 1584 1584 1584 1584 1583 1583 1583 1582 1582 1581 1581 1580 1579 1578 1577 1576 1575
1563 1564 1566 1567 1569 1570 1571 1572 1573 1574 1574 1575 1576 1577 1578 1578 1579 1579 1580 1580 1580 1580 1581 1581 1581 1581 1580 1580 1579 1579 1578 1578 1577 1576 1575 1574 1573 1572
1559 1560 1561 1563 1564 1566 1567 1568 1569 1570 1571 1571 1573 1574 1574 1575 1576 1576 1577 1577 1577 1577 1577 1577 1578 1577 1577 1577 1576 1576 1575 1574 1574 1573 1572 1571 1569 1568
1554 1555 1557 1558 1560 1561 1563 1564 1565 1566 1567 1567 1569 1570 1571 1572 1572 1573 1574 1574 1574 1574 1574 1574 1574 1574 1574 1573 1573 1572 1572 1571 1570 1569 1568 1567 1566 1564
1549 1551 1552 1554 1555 1557 1558 1559 1560 1562 1563 1564 1564 1566 1567 1568 1569 1570 1570 1570 1571 1571 1571 1571 1571 1571 1571 1570 1570 1569 1568 1568 1567 1566 1564 1563 1562 1560
1545 1547 1548 1550 1551 1552 1554 1555 1556 1558 1559 1560 1561 1562 1563 1564 1565 1566 1566 1567 1567 1567 1567 1568 1568 1568 1567 1567 1566 1566 1565 1564 1563 1562 1561 1560 1558 1556
1541 1543 1544 1546 1547 1549 1550 1551 1553 1554 1555 1556 1557 1558 1559 1561 1562 1563 1563 1564 1564 1564 1565 1565 1565 1565 1564 1563 1563 1562 1562 1561 1559 1558 1557 1555 1554 1552
1538 1539 1541 1542 1544 1545 1547 1548 1550 1551 1552 1553 1554 1555 1557 1558 1559 1560 1560 1561 1561 1562 1562 1562 1562 1562 1561 1560 1560 1559 1558 1557 1556 1555 1553 1552 1550 1548
1535 1537 1538 1539 1540 1542 1544 1545 1547 1548 1550 1551 1552 1553 1554 1556 1557 1557 1558 1558 1558 1559 1559 1559 1559 1559 1559 1558 1557 1556 1555 1554 1553 1552 1550 1548 1546 1544
1533 1535 1536 1537 1538 1540 1541 1543 1545 1546 1548 1549 1551 1552 1553 1553 1554 1555 1556 1556 1557 1557 1558 1558 1557 1557 1557 1556 1555 1554 1553 1552 1550 1548 1547 1545 1543 1540
1532 1534 1535 1536 1538 1539 1540 1541 1543 1545 1547 1548 1549 1550 1551 1552 1553 1554 1554 1555 1555 1556 1556 1556 1556 1555 1555 1555 1554 1552 1551 1550 1548 1546 1544 1542 1539 1536
1532 1534 1535 1536 1537 1538 1539 1541 1542 1544 1546 1547 1549 1550 1551 1552 1553 1554 1554 1554 1554 1555 1555 1555 1555 1554 1553 1553 1552 1551 1549 1547 1545 1543 1541 1538 1536 1533
1532 1533 1535 1537 1538 1539 1540 1542 1544 1546 1547 1549 1550 1551 1552 1553 1553 1553 1554 1554 1554 1554 1555 1555 1554 1553 1553 1552 1550 1549 1547 1545 1543 1541 1538 1536 1533 1530
1532 1534 1536 1537 1539 1540 1541 1543 1545 1547 1548 1550 1551 1552 1553 1553 1554 1554 1554 1554 1555 1555 1554 1554 1553 1553 1551 1550 1549 1547 1546 1544 1541 1538 1536 1533 1531 1528
1533 1535 1537 1539 1540 1541 1543 1545 1546 1548 1549 1550 1551 1553 1554 1555 1555 1556 1556 1556 1555 1555 1555 1554 1553 1552 1551 1550 1548 1546 1544 1542 1540 1537 1534 1531 1528 1524
1534 1536 1538 1539 1541 1543 1544 1546 1548 1549 1551 1552 1553 1554 1555 1556 1556 1557 1557 1557 1556 1556 1555 1555 1553 1552 1551 1549 1548 1545 1543 1541 1538 1535 1532 1529 1526 1522
1534 1536 1538 1540 1542 1544 1546 1547 1549 1550 1552 1553 1554 1555 1556 1557 1558 1558 1558 1558 1557 1556 1556 1555 1554 1552 1551 1549 1547 1545 1542 1539 1536 1533 1529 1526 1523 1520
1535 1536 1538 1541 1543 1545 1547 1549 1551 1552 1554 1555 1555 1556 1557 1558 1558 1559 1559 1559 1558 1557 1556 1555 1553 1552 1551 1548 1547 1543 1541 1538 1534 1531 1528 1524 1520 1517
1536 1538 1540 1542 1544 1546 1548 1550 1552 1554 1555 1555 1557 1557 1558 1559 1559 1559 1559 1559 1558 1558 1557 1555 1553 1551 1549 1547 1546 1543 1540 1536 1533 1529 1526 1522 1518 1515
1538 1539 1541 1543 1546 1548 1550 1552 1553 1554 1555 1556 1557 1558 1559 1559 1560 1560 1560 1559 1559 1558 1557 1555 1553 1551 1549 1548 1545 1542 1539 1535 1531 1527 1524 1520 1516 1513
1539 1541 1543 1545 1547 1549 1551 1553 1554 1555 1556 1557 1558 1559 1559 1560 1560 1560 1560 1559 1559 1558 1556 1555 1553 1552 1549 1547 1544 1541 1538 1535 1531 1526 1522 1518 1513 1509
1540 1542 1545 1547 1548 1550 1552 1553 1555 1556 1557 1558 1558 1559 1560 1560 1560 1560 1560 1559 1558 1557 1556 1555 1553 1551 1549 1546 1543 1540 1536 1533 1530 1526 1522 1518 1513 1508
1542 1544 1546 1548 1550 1551 1553 1554 1555 1556 1557 1558 1558 1559 1559 1560 1560 1559 1559 1559 1558 1557 1556 1554 1552 1550 1548 1545 1542 1538 1535 1531 1527 1523 1520 1517 1513 1509